Time,TemperatureF,DewpointF,PressureIn,WindDirection,WindDirectionDegrees,WindSpeedMPH,WindSpeedGustMPH,Humidity,HourlyPrecipIn,Conditions,Clouds,dailyrainin,SoftwareType,DateUTC
2013-08-12 00:01:00,67.0,46.1,30.19,West,270,1.0,15.0,47,0.00,,,0.00,Weather View 32 v70,2013-08-12 06:01:00,
2013-08-12 00:06:00,67.0,46.1,30.19,West,270,4.0,14.0,47,0.00,,,0.00,Weather View 32 v70,2013-08-12 06:06:00,
2013-08-12 00:11:00,67.0,46.6,30.19,WNW,292,3.0,13.0,48,0.00,,,0.00,Weather View 32 v70,2013-08-12 06:11:00,
2013-08-12 00:16:00,67.0,46.1,30.19,NW,315,8.0,12.0,47,0.00,,,0.00,Weather View 32 v70,2013-08-12 06:16:00,
2013-08-12 00:21:00,67.0,46.1,30.19,NW,315,4.0,12.0,47,0.00,,,0.00,Weather View 32 v70,2013-08-12 06:21:00,
2013-08-12 00:25:00,67.0,46.1,30.19,NW,315,2.0,12.0,47,0.00,,,0.00,Weather View 32 v70,2013-08-12 06:25:00,
2013-08-12 00:30:00,67.0,46.1,30.19,NW,315,0.0,12.0,47,0.00,,,0.00,Weather View 32 v70,2013-08-12 06:30:00,
2013-08-12 00:35:00,67.0,46.6,30.19,NW,315,0.0,11.0,48,0.00,,,0.00,Weather View 32 v70,2013-08-12 06:35:00,
2013-08-12 00:40:00,67.0,46.6,30.20,NW,315,0.0,10.0,48,0.00,,,0.00,Weather View 32 v70,2013-08-12 06:40:00,
2013-08-12 00:45:00,66.0,45.1,30.20,NW,315,0.0,9.0,47,0.00,,,0.00,Weather View 32 v70,2013-08-12 06:45:00,
2013-08-12 00:50:00,66.0,45.7,30.19,NW,315,0.0,8.0,48,0.00,,,0.00,Weather View 32 v70,2013-08-12 06:50:00,
2013-08-12 00:55:00,66.0,46.2,30.19,NW,315,0.0,8.0,49,0.00,,,0.00,Weather View 32 v70,2013-08-12 06:55:00,
2013-08-12 01:00:00,66.0,47.3,30.18,NW,315,3.0,8.0,51,0.00,,,0.00,Weather View 32 v70,2013-08-12 07:00:00,
2013-08-12 01:05:00,66.0,47.3,30.18,NW,315,0.0,8.0,51,0.00,,,0.00,Weather View 32 v70,2013-08-12 07:05:00,
2013-08-12 01:10:00,66.0,47.8,30.19,NW,315,1.0,8.0,52,0.00,,,0.00,Weather View 32 v70,2013-08-12 07:10:00,
2013-08-12 01:15:00,66.0,47.3,30.19,NNE,22,0.0,8.0,51,0.00,,,0.00,Weather View 32 v70,2013-08-12 07:15:00,
2013-08-12 01:20:00,66.0,47.3,30.19,NNE,22,0.0,6.0,51,0.00,,,0.00,Weather View 32 v70,2013-08-12 07:20:00,
2013-08-12 01:25:00,65.0,46.4,30.19,NNE,22,2.0,4.0,51,0.00,,,0.00,Weather View 32 v70,2013-08-12 07:25:00,
2013-08-12 01:30:00,65.0,46.4,30.20,NNE,22,0.0,3.0,51,0.00,,,0.00,Weather View 32 v70,2013-08-12 07:30:00,
2013-08-12 01:35:00,65.0,46.9,30.20,NNE,22,2.0,4.0,52,0.00,,,0.00,Weather View 32 v70,2013-08-12 07:35:00,
2013-08-12 01:40:00,65.0,46.4,30.20,NNE,22,0.0,5.0,51,0.00,,,0.00,Weather View 32 v70,2013-08-12 07:40:00,
2013-08-12 01:45:00,65.0,46.4,30.20,NNE,22,0.0,5.0,51,0.00,,,0.00,Weather View 32 v70,2013-08-12 07:45:00,
2013-08-12 01:50:00,65.0,46.4,30.19,NNE,22,2.0,5.0,51,0.00,,,0.00,Weather View 32 v70,2013-08-12 07:50:00,
2013-08-12 01:55:00,66.0,46.2,30.19,NNE,22,5.0,6.0,49,0.00,,,0.00,Weather View 32 v70,2013-08-12 07:55:00,
2013-08-12 02:00:00,66.0,46.2,30.19,NE,45,3.0,8.0,49,0.00,,,0.00,Weather View 32 v70,2013-08-12 08:00:00,
2013-08-12 02:05:00,66.0,45.7,30.19,ENE,67,6.0,8.0,48,0.00,,,0.00,Weather View 32 v70,2013-08-12 08:05:00,
2013-08-12 02:10:00,66.0,45.1,30.18,ENE,67,4.0,8.0,47,0.00,,,0.00,Weather View 32 v70,2013-08-12 08:10:00,
2013-08-12 02:15:00,66.0,45.7,30.18,ENE,67,2.0,8.0,48,0.00,,,0.00,Weather View 32 v70,2013-08-12 08:15:00,
2013-08-12 02:20:00,66.0,46.2,30.18,ENE,67,0.0,8.0,49,0.00,,,0.00,Weather View 32 v70,2013-08-12 08:20:00,
2013-08-12 02:25:00,66.0,46.8,30.18,ENE,67,0.0,8.0,50,0.00,,,0.00,Weather View 32 v70,2013-08-12 08:25:00,
2013-08-12 02:30:00,66.0,46.8,30.18,ENE,67,0.0,8.0,50,0.00,,,0.00,Weather View 32 v70,2013-08-12 08:30:00,
2013-08-12 02:35:00,65.0,46.4,30.18,ENE,67,0.0,8.0,51,0.00,,,0.00,Weather View 32 v70,2013-08-12 08:35:00,
2013-08-12 02:40:00,65.0,46.9,30.18,SE,135,4.0,8.0,52,0.00,,,0.00,Weather View 32 v70,2013-08-12 08:40:00,
2013-08-12 02:45:00,65.0,46.9,30.18,SE,135,3.0,8.0,52,0.00,,,0.00,Weather View 32 v70,2013-08-12 08:45:00,
2013-08-12 02:50:00,65.0,46.9,30.19,SE,135,1.0,8.0,52,0.00,,,0.00,Weather View 32 v70,2013-08-12 08:50:00,
2013-08-12 02:55:00,65.0,47.4,30.19,SE,135,3.0,8.0,53,0.00,,,0.00,Weather View 32 v70,2013-08-12 08:55:00,
2013-08-12 03:00:00,65.0,47.4,30.18,SE,135,0.0,6.0,53,0.00,,,0.00,Weather View 32 v70,2013-08-12 09:00:00,
2013-08-12 03:05:00,65.0,46.9,30.18,SE,135,0.0,6.0,52,0.00,,,0.00,Weather View 32 v70,2013-08-12 09:05:00,
2013-08-12 03:10:00,65.0,46.9,30.18,NE,45,4.0,5.0,52,0.00,,,0.00,Weather View 32 v70,2013-08-12 09:10:00,
2013-08-12 03:15:00,65.0,45.9,30.18,NE,45,3.0,6.0,50,0.00,,,0.00,Weather View 32 v70,2013-08-12 09:15:00,
2013-08-12 03:20:00,65.0,45.9,30.18,NE,45,0.0,6.0,50,0.00,,,0.00,Weather View 32 v70,2013-08-12 09:20:00,
2013-08-12 03:25:00,65.0,46.9,30.18,NE,45,0.0,6.0,52,0.00,,,0.00,Weather View 32 v70,2013-08-12 09:25:00,
2013-08-12 03:30:00,65.0,46.9,30.18,NE,45,3.0,6.0,52,0.00,,,0.00,Weather View 32 v70,2013-08-12 09:30:00,
2013-08-12 03:35:00,65.0,46.9,30.18,NE,45,0.0,6.0,52,0.00,,,0.00,Weather View 32 v70,2013-08-12 09:35:00,
2013-08-12 03:40:00,65.0,47.4,30.18,NE,45,0.0,6.0,53,0.00,,,0.00,Weather View 32 v70,2013-08-12 09:40:00,
2013-08-12 03:45:00,64.0,47.0,30.18,NE,45,0.0,6.0,54,0.00,,,0.00,Weather View 32 v70,2013-08-12 09:45:00,
2013-08-12 03:50:00,64.0,47.0,30.18,NE,45,1.0,6.0,54,0.00,,,0.00,Weather View 32 v70,2013-08-12 09:50:00,
2013-08-12 03:55:00,64.0,47.0,30.18,NE,45,0.0,6.0,54,0.00,,,0.00,Weather View 32 v70,2013-08-12 09:55:00,
2013-08-12 04:00:00,64.0,47.9,30.18,NE,45,0.0,6.0,56,0.00,,,0.00,Weather View 32 v70,2013-08-12 10:00:00,
2013-08-12 04:05:00,64.0,47.9,30.18,NE,45,3.0,6.0,56,0.00,,,0.00,Weather View 32 v70,2013-08-12 10:05:00,
2013-08-12 04:10:00,64.0,47.9,30.18,NE,45,2.0,6.0,56,0.00,,,0.00,Weather View 32 v70,2013-08-12 10:10:00,
2013-08-12 04:15:00,64.0,48.4,30.18,NE,45,3.0,4.0,57,0.00,,,0.00,Weather View 32 v70,2013-08-12 10:15:00,
2013-08-12 04:20:00,64.0,48.4,30.18,NE,45,2.0,4.0,57,0.00,,,0.00,Weather View 32 v70,2013-08-12 10:20:00,
2013-08-12 04:25:00,64.0,47.5,30.18,NE,45,0.0,4.0,55,0.00,,,0.00,Weather View 32 v70,2013-08-12 10:25:00,
2013-08-12 04:30:00,63.0,46.5,30.19,NE,45,0.0,4.0,55,0.00,,,0.00,Weather View 32 v70,2013-08-12 10:30:00,
2013-08-12 04:35:00,63.0,47.0,30.19,NE,45,0.0,4.0,56,0.00,,,0.00,Weather View 32 v70,2013-08-12 10:35:00,
2013-08-12 04:40:00,63.0,47.5,30.20,NE,45,0.0,4.0,57,0.00,,,0.00,Weather View 32 v70,2013-08-12 10:40:00,
2013-08-12 04:45:00,63.0,47.5,30.20,NE,45,1.0,4.0,57,0.00,,,0.00,Weather View 32 v70,2013-08-12 10:45:00,
2013-08-12 04:50:00,63.0,48.4,30.20,West,270,4.0,4.0,59,0.00,,,0.00,Weather View 32 v70,2013-08-12 10:50:00,
2013-08-12 04:55:00,63.0,48.9,30.20,West,270,1.0,4.0,60,0.00,,,0.00,Weather View 32 v70,2013-08-12 10:55:00,
2013-08-12 05:00:00,63.0,49.7,30.20,West,270,0.0,4.0,62,0.00,,,0.00,Weather View 32 v70,2013-08-12 11:00:00,
2013-08-12 05:05:00,62.0,48.4,30.20,West,270,1.0,4.0,61,0.00,,,0.00,Weather View 32 v70,2013-08-12 11:05:00,
2013-08-12 05:10:00,62.0,47.9,30.20,West,270,1.0,4.0,60,0.00,,,0.00,Weather View 32 v70,2013-08-12 11:10:00,
2013-08-12 05:15:00,62.0,47.5,30.20,West,270,3.0,4.0,59,0.00,,,0.00,Weather View 32 v70,2013-08-12 11:15:00,
2013-08-12 05:20:00,62.0,47.9,30.20,WNW,292,4.0,5.0,60,0.00,,,0.00,Weather View 32 v70,2013-08-12 11:20:00,
2013-08-12 05:25:00,62.0,47.9,30.20,WNW,292,2.0,5.0,60,0.00,,,0.00,Weather View 32 v70,2013-08-12 11:25:00,
2013-08-12 05:30:00,62.0,47.9,30.20,NW,315,4.0,6.0,60,0.00,,,0.00,Weather View 32 v70,2013-08-12 11:30:00,
2013-08-12 05:35:00,62.0,47.5,30.20,NW,315,3.0,7.0,59,0.00,,,0.00,Weather View 32 v70,2013-08-12 11:35:00,
2013-08-12 05:40:00,62.0,47.5,30.20,NW,315,0.0,7.0,59,0.00,,,0.00,Weather View 32 v70,2013-08-12 11:40:00,
2013-08-12 05:45:00,62.0,47.9,30.20,NW,315,0.0,7.0,60,0.00,,,0.00,Weather View 32 v70,2013-08-12 11:45:00,
2013-08-12 05:50:00,62.0,47.9,30.20,NW,315,3.0,7.0,60,0.00,,,0.00,Weather View 32 v70,2013-08-12 11:50:00,
2013-08-12 05:55:00,62.0,47.5,30.20,NW,315,0.0,7.0,59,0.00,,,0.00,Weather View 32 v70,2013-08-12 11:55:00,
2013-08-12 06:00:00,62.0,48.4,30.20,NW,315,0.0,7.0,61,0.00,,,0.00,Weather View 32 v70,2013-08-12 12:00:00,
2013-08-12 06:05:00,62.0,48.8,30.20,NW,315,0.0,7.0,62,0.00,,,0.00,Weather View 32 v70,2013-08-12 12:05:00,
2013-08-12 06:10:00,61.0,47.9,30.20,NW,315,2.0,7.0,62,0.00,,,0.00,Weather View 32 v70,2013-08-12 12:10:00,
2013-08-12 06:15:00,62.0,48.8,30.20,North,360,5.0,7.0,62,0.00,,,0.00,Weather View 32 v70,2013-08-12 12:15:00,
2013-08-12 06:20:00,62.0,47.9,30.20,North,360,5.0,7.0,60,0.00,,,0.00,Weather View 32 v70,2013-08-12 12:20:00,
2013-08-12 06:25:00,62.0,47.9,30.20,North,360,3.0,7.0,60,0.00,,,0.00,Weather View 32 v70,2013-08-12 12:25:00,
2013-08-12 06:30:00,62.0,47.5,30.20,North,360,0.0,7.0,59,0.00,,,0.00,Weather View 32 v70,2013-08-12 12:30:00,
2013-08-12 06:35:00,62.0,48.8,30.20,SE,135,4.0,7.0,62,0.00,,,0.00,Weather View 32 v70,2013-08-12 12:35:00,
2013-08-12 06:40:00,62.0,49.7,30.22,ESE,112,5.0,7.0,64,0.00,,,0.00,Weather View 32 v70,2013-08-12 12:40:00,
2013-08-12 06:45:00,62.0,50.1,30.22,East,90,3.0,7.0,65,0.00,,,0.00,Weather View 32 v70,2013-08-12 12:45:00,
2013-08-12 06:50:00,62.0,50.1,30.21,ENE,67,5.0,7.0,65,0.00,,,0.00,Weather View 32 v70,2013-08-12 12:50:00,
2013-08-12 06:55:00,62.0,50.1,30.21,NE,45,6.0,9.0,65,0.00,,,0.00,Weather View 32 v70,2013-08-12 12:55:00,
2013-08-12 07:00:00,62.0,48.8,30.21,NE,45,6.0,9.0,62,0.00,,,0.00,Weather View 32 v70,2013-08-12 13:00:00,
2013-08-12 07:05:00,62.0,48.8,30.21,ENE,67,5.0,9.0,62,0.00,,,0.00,Weather View 32 v70,2013-08-12 13:05:00,
2013-08-12 07:10:00,62.0,49.2,30.22,ENE,67,5.0,9.0,63,0.00,,,0.00,Weather View 32 v70,2013-08-12 13:10:00,
2013-08-12 07:15:00,62.0,48.8,30.22,East,90,7.0,9.0,62,0.00,,,0.00,Weather View 32 v70,2013-08-12 13:15:00,
2013-08-12 07:20:00,63.0,48.9,30.22,NE,45,6.0,9.0,60,0.00,,,0.00,Weather View 32 v70,2013-08-12 13:20:00,
2013-08-12 07:25:00,63.0,48.0,30.22,NE,45,9.0,11.0,58,0.00,,,0.00,Weather View 32 v70,2013-08-12 13:25:00,
2013-08-12 07:30:00,64.0,47.9,30.21,NE,45,6.0,14.0,56,0.00,,,0.00,Weather View 32 v70,2013-08-12 13:30:00,
2013-08-12 07:35:00,64.0,46.5,30.21,NE,45,9.0,14.0,53,0.00,,,0.00,Weather View 32 v70,2013-08-12 13:35:00,
2013-08-12 07:40:00,65.0,46.4,30.21,NE,45,5.0,14.0,51,0.00,,,0.00,Weather View 32 v70,2013-08-12 13:40:00,
2013-08-12 07:45:00,66.0,46.8,30.21,NE,45,7.0,14.0,50,0.00,,,0.00,Weather View 32 v70,2013-08-12 13:45:00,
2013-08-12 07:50:00,66.0,46.8,30.21,NNE,22,8.0,14.0,50,0.00,,,0.00,Weather View 32 v70,2013-08-12 13:50:00,
2013-08-12 07:55:00,66.0,45.1,30.21,ENE,67,6.0,14.0,47,0.00,,,0.00,Weather View 32 v70,2013-08-12 13:55:00,
2013-08-12 08:00:00,67.0,46.6,30.21,East,90,3.0,14.0,48,0.00,,,0.00,Weather View 32 v70,2013-08-12 14:00:00,
2013-08-12 08:05:00,68.0,46.4,30.21,South,180,1.0,14.0,46,0.00,,,0.00,Weather View 32 v70,2013-08-12 14:05:00,
2013-08-12 08:10:00,69.0,45.5,30.21,East,90,7.0,14.0,43,0.00,,,0.00,Weather View 32 v70,2013-08-12 14:10:00,
2013-08-12 08:15:00,70.0,48.2,30.21,SE,135,1.0,14.0,46,0.00,,,0.00,Weather View 32 v70,2013-08-12 14:15:00,
2013-08-12 08:20:00,70.0,47.6,30.20,SE,135,5.0,14.0,45,0.00,,,0.00,Weather View 32 v70,2013-08-12 14:20:00,
2013-08-12 08:25:00,70.0,48.2,30.20,SE,135,3.0,14.0,46,0.00,,,0.00,Weather View 32 v70,2013-08-12 14:25:00,
2013-08-12 08:30:00,71.0,48.5,30.21,SE,135,7.0,13.0,45,0.00,,,0.00,Weather View 32 v70,2013-08-12 14:30:00,
2013-08-12 08:35:00,71.0,47.9,30.21,SE,135,6.0,11.0,44,0.00,,,0.00,Weather View 32 v70,2013-08-12 14:35:00,
2013-08-12 08:40:00,71.0,47.3,30.20,East,90,5.0,10.0,43,0.00,,,0.00,Weather View 32 v70,2013-08-12 14:40:00,
2013-08-12 08:45:00,71.0,46.7,30.20,East,90,4.0,10.0,42,0.00,,,0.00,Weather View 32 v70,2013-08-12 14:45:00,
2013-08-12 08:50:00,71.0,46.0,30.21,ESE,112,6.0,10.0,41,0.00,,,0.00,Weather View 32 v70,2013-08-12 14:50:00,
2013-08-12 08:55:00,71.0,46.0,30.21,East,90,5.0,10.0,41,0.00,,,0.00,Weather View 32 v70,2013-08-12 14:55:00,
2013-08-12 09:00:00,71.0,47.3,30.21,East,90,5.0,10.0,43,0.00,,,0.00,Weather View 32 v70,2013-08-12 15:00:00,
2013-08-12 09:05:00,71.0,46.7,30.21,East,90,5.0,10.0,42,0.00,,,0.00,Weather View 32 v70,2013-08-12 15:05:00,
2013-08-12 09:10:00,71.0,46.0,30.21,East,90,5.0,10.0,41,0.00,,,0.00,Weather View 32 v70,2013-08-12 15:10:00,
2013-08-12 09:15:00,71.0,45.4,30.21,East,90,5.0,10.0,40,0.00,,,0.00,Weather View 32 v70,2013-08-12 15:15:00,
2013-08-12 09:20:00,72.0,46.9,30.21,SE,135,3.0,10.0,41,0.00,,,0.00,Weather View 32 v70,2013-08-12 15:20:00,
2013-08-12 09:25:00,72.0,45.6,30.21,SE,135,6.0,10.0,39,0.00,,,0.00,Weather View 32 v70,2013-08-12 15:25:00,
2013-08-12 09:29:00,72.0,45.6,30.21,South,180,5.0,10.0,39,0.00,,,0.00,Weather View 32 v70,2013-08-12 15:29:00,
2013-08-12 09:34:00,72.0,45.6,30.21,SE,135,5.0,10.0,39,0.00,,,0.00,Weather View 32 v70,2013-08-12 15:34:00,
2013-08-12 09:39:00,72.0,47.6,30.21,SE,135,4.0,10.0,42,0.00,,,0.00,Weather View 32 v70,2013-08-12 15:39:00,
2013-08-12 09:44:00,73.0,47.2,30.21,South,180,4.0,10.0,40,0.00,,,0.00,Weather View 32 v70,2013-08-12 15:44:00,
2013-08-12 09:49:00,73.0,47.8,30.20,South,180,3.0,10.0,41,0.00,,,0.00,Weather View 32 v70,2013-08-12 15:49:00,
2013-08-12 09:54:00,74.0,48.1,30.20,SE,135,7.0,10.0,40,0.00,,,0.00,Weather View 32 v70,2013-08-12 15:54:00,
2013-08-12 09:59:00,74.0,46.0,30.20,SE,135,1.0,10.0,37,0.00,,,0.00,Weather View 32 v70,2013-08-12 15:59:00,
2013-08-12 10:04:00,75.0,46.2,30.20,SE,135,4.0,10.0,36,0.00,,,0.00,Weather View 32 v70,2013-08-12 16:04:00,
2013-08-12 10:09:00,75.0,45.4,30.21,SSE,157,5.0,10.0,35,0.00,,,0.00,Weather View 32 v70,2013-08-12 16:09:00,
2013-08-12 10:14:00,75.0,46.2,30.21,East,90,3.0,10.0,36,0.00,,,0.00,Weather View 32 v70,2013-08-12 16:14:00,
2013-08-12 10:19:00,75.0,46.9,30.20,ESE,112,1.0,10.0,37,0.00,,,0.00,Weather View 32 v70,2013-08-12 16:19:00,
2013-08-12 10:24:00,75.0,46.9,30.20,ENE,67,5.0,9.0,37,0.00,,,0.00,Weather View 32 v70,2013-08-12 16:24:00,
2013-08-12 10:29:00,75.0,46.9,30.20,SSE,157,2.0,10.0,37,0.00,,,0.00,Weather View 32 v70,2013-08-12 16:29:00,
2013-08-12 10:34:00,75.0,43.9,30.20,ESE,112,2.0,10.0,33,0.00,,,0.00,Weather View 32 v70,2013-08-12 16:34:00,
2013-08-12 10:39:00,75.0,44.6,30.21,ESE,112,6.0,10.0,34,0.00,,,0.00,Weather View 32 v70,2013-08-12 16:39:00,
2013-08-12 10:44:00,76.0,43.1,30.21,ESE,112,0.0,10.0,31,0.00,,,0.00,Weather View 32 v70,2013-08-12 16:44:00,
2013-08-12 10:49:00,76.0,43.1,30.20,NE,45,3.0,10.0,31,0.00,,,0.00,Weather View 32 v70,2013-08-12 16:49:00,
2013-08-12 10:54:00,77.0,43.1,30.20,East,90,0.0,10.0,30,0.00,,,0.00,Weather View 32 v70,2013-08-12 16:54:00,
2013-08-12 10:59:00,78.0,40.2,30.20,ENE,67,2.0,10.0,26,0.00,,,0.00,Weather View 32 v70,2013-08-12 16:59:00,
2013-08-12 11:04:00,79.0,43.0,30.20,NE,45,4.0,10.0,28,0.00,,,0.00,Weather View 32 v70,2013-08-12 17:04:00,
2013-08-12 11:09:00,79.0,43.9,30.20,NE,45,7.0,10.0,29,0.00,,,0.00,Weather View 32 v70,2013-08-12 17:09:00,
2013-08-12 11:14:00,79.0,43.9,30.20,North,360,4.0,10.0,29,0.00,,,0.00,Weather View 32 v70,2013-08-12 17:14:00,
2013-08-12 11:19:00,80.0,42.9,30.19,NW,315,4.0,10.0,27,0.00,,,0.00,Weather View 32 v70,2013-08-12 17:19:00,
2013-08-12 11:24:00,81.0,43.8,30.19,NW,315,4.0,10.0,27,0.00,,,0.00,Weather View 32 v70,2013-08-12 17:24:00,
2013-08-12 11:29:00,82.0,43.6,30.18,WNW,292,3.0,8.0,26,0.00,,,0.00,Weather View 32 v70,2013-08-12 17:29:00,
2013-08-12 11:34:00,82.0,44.6,30.18,NW,315,3.0,8.0,27,0.00,,,0.00,Weather View 32 v70,2013-08-12 17:34:00,
2013-08-12 11:39:00,83.0,43.4,30.18,NNW,337,1.0,8.0,25,0.00,,,0.00,Weather View 32 v70,2013-08-12 17:39:00,
2013-08-12 11:44:00,83.0,43.4,30.18,West,270,3.0,8.0,25,0.00,,,0.00,Weather View 32 v70,2013-08-12 17:44:00,
2013-08-12 11:49:00,83.0,44.5,30.18,North,360,2.0,8.0,26,0.00,,,0.00,Weather View 32 v70,2013-08-12 17:49:00,
2013-08-12 11:54:00,83.0,43.4,30.18,East,90,3.0,8.0,25,0.00,,,0.00,Weather View 32 v70,2013-08-12 17:54:00,
2013-08-12 11:59:00,84.0,43.2,30.17,SE,135,1.0,8.0,24,0.00,,,0.00,Weather View 32 v70,2013-08-12 17:59:00,
2013-08-12 12:04:00,84.0,41.0,30.17,South,180,7.0,8.0,22,0.00,,,0.00,Weather View 32 v70,2013-08-12 18:04:00,
2013-08-12 12:09:00,84.0,41.0,30.17,SSE,157,9.0,9.0,22,0.00,,,0.00,Weather View 32 v70,2013-08-12 18:09:00,
2013-08-12 12:14:00,83.0,40.1,30.17,SE,135,1.0,10.0,22,0.00,,,0.00,Weather View 32 v70,2013-08-12 18:14:00,
2013-08-12 12:19:00,83.0,38.9,30.17,SSW,202,0.0,10.0,21,0.00,,,0.00,Weather View 32 v70,2013-08-12 18:19:00,
2013-08-12 12:24:00,83.0,40.1,30.17,NW,315,5.0,10.0,22,0.00,,,0.00,Weather View 32 v70,2013-08-12 18:24:00,
2013-08-12 12:29:00,82.0,41.5,30.16,NW,315,5.0,10.0,24,0.00,,,0.00,Weather View 32 v70,2013-08-12 18:29:00,
2013-08-12 12:34:00,82.0,41.5,30.16,North,360,3.0,10.0,24,0.00,,,0.00,Weather View 32 v70,2013-08-12 18:34:00,
2013-08-12 12:40:00,83.0,40.1,30.16,South,180,1.0,10.0,22,0.00,,,0.00,Weather View 32 v70,2013-08-12 18:40:00,
2013-08-12 12:45:00,84.0,39.8,30.16,South,180,3.0,10.0,21,0.00,,,0.00,Weather View 32 v70,2013-08-12 18:45:00,
2013-08-12 12:50:00,85.0,36.6,30.16,SW,225,5.0,10.0,18,0.00,,,0.00,Weather View 32 v70,2013-08-12 18:50:00,
2013-08-12 12:55:00,85.0,39.3,30.16,NW,315,6.0,10.0,20,0.00,,,0.00,Weather View 32 v70,2013-08-12 18:55:00,
2013-08-12 13:00:00,85.0,40.6,30.16,West,270,5.0,10.0,21,0.00,,,0.00,Weather View 32 v70,2013-08-12 19:00:00,
2013-08-12 13:05:00,85.0,39.3,30.16,West,270,6.0,10.0,20,0.00,,,0.00,Weather View 32 v70,2013-08-12 19:05:00,
2013-08-12 13:10:00,85.0,42.9,30.15,West,270,1.0,10.0,23,0.00,,,0.00,Weather View 32 v70,2013-08-12 19:10:00,
2013-08-12 13:15:00,85.0,39.3,30.15,SW,225,4.0,9.0,20,0.00,,,0.00,Weather View 32 v70,2013-08-12 19:15:00,
2013-08-12 13:20:00,86.0,40.1,30.14,East,90,0.0,9.0,20,0.00,,,0.00,Weather View 32 v70,2013-08-12 19:20:00,
2013-08-12 13:25:00,86.0,41.4,30.14,NE,45,5.0,10.0,21,0.00,,,0.00,Weather View 32 v70,2013-08-12 19:25:00,
2013-08-12 13:30:00,85.0,42.9,30.14,SE,135,5.0,10.0,23,0.00,,,0.00,Weather View 32 v70,2013-08-12 19:30:00,
2013-08-12 13:35:00,84.0,41.0,30.14,ENE,67,9.0,10.0,22,0.00,,,0.00,Weather View 32 v70,2013-08-12 19:35:00,
2013-08-12 13:40:00,84.0,41.0,30.14,South,180,8.0,10.0,22,0.00,,,0.00,Weather View 32 v70,2013-08-12 19:40:00,
2013-08-12 13:46:00,84.0,41.0,30.14,South,180,5.0,11.0,22,0.00,,,0.00,Weather View 32 v70,2013-08-12 19:46:00,
2013-08-12 13:51:00,84.0,39.8,30.13,NNW,337,5.0,11.0,21,0.00,,,0.00,Weather View 32 v70,2013-08-12 19:51:00,
2013-08-12 13:56:00,85.0,44.1,30.13,NW,315,4.0,11.0,24,0.00,,,0.00,Weather View 32 v70,2013-08-12 19:56:00,
2013-08-12 14:01:00,85.0,42.9,30.13,SW,225,5.0,11.0,23,0.00,,,0.00,Weather View 32 v70,2013-08-12 20:01:00,
2013-08-12 14:06:00,85.0,42.9,30.13,West,270,2.0,11.0,23,0.00,,,0.00,Weather View 32 v70,2013-08-12 20:06:00,
2013-08-12 14:11:00,85.0,40.6,30.12,South,180,2.0,11.0,21,0.00,,,0.00,Weather View 32 v70,2013-08-12 20:11:00,
2013-08-12 14:16:00,86.0,41.4,30.12,SE,135,8.0,12.0,21,0.00,,,0.00,Weather View 32 v70,2013-08-12 20:16:00,
2013-08-12 14:21:00,86.0,40.1,30.12,South,180,4.0,12.0,20,0.00,,,0.00,Weather View 32 v70,2013-08-12 20:21:00,
2013-08-12 14:26:00,86.0,41.4,30.12,West,270,8.0,12.0,21,0.00,,,0.00,Weather View 32 v70,2013-08-12 20:26:00,
2013-08-12 14:31:00,86.0,41.4,30.11,NW,315,7.0,12.0,21,0.00,,,0.00,Weather View 32 v70,2013-08-12 20:31:00,
2013-08-12 14:36:00,86.0,42.6,30.11,NW,315,10.0,12.0,22,0.00,,,0.00,Weather View 32 v70,2013-08-12 20:36:00,
2013-08-12 14:41:00,85.0,45.1,30.11,NW,315,7.0,12.0,25,0.00,,,0.00,Weather View 32 v70,2013-08-12 20:41:00,
2013-08-12 14:46:00,83.0,42.4,30.11,North,360,9.0,13.0,24,0.00,,,0.00,Weather View 32 v70,2013-08-12 20:46:00,
2013-08-12 14:51:00,83.0,42.4,30.11,NNW,337,7.0,13.0,24,0.00,,,0.00,Weather View 32 v70,2013-08-12 20:51:00,
2013-08-12 14:56:00,83.0,40.1,30.11,North,360,3.0,13.0,22,0.00,,,0.00,Weather View 32 v70,2013-08-12 20:56:00,
2013-08-12 15:01:00,84.0,41.0,30.10,South,180,4.0,13.0,22,0.00,,,0.00,Weather View 32 v70,2013-08-12 21:01:00,
2013-08-12 15:06:00,85.0,40.6,30.10,South,180,3.0,13.0,21,0.00,,,0.00,Weather View 32 v70,2013-08-12 21:06:00,
2013-08-12 15:11:00,86.0,42.6,30.09,NW,315,10.0,13.0,22,0.00,,,0.00,Weather View 32 v70,2013-08-12 21:11:00,
2013-08-12 15:16:00,86.0,41.4,30.09,NW,315,7.0,13.0,21,0.00,,,0.00,Weather View 32 v70,2013-08-12 21:16:00,
2013-08-12 15:21:00,86.0,42.6,30.09,NW,315,2.0,13.0,22,0.00,,,0.00,Weather View 32 v70,2013-08-12 21:21:00,
2013-08-12 15:26:00,87.0,42.2,30.09,WSW,247,4.0,13.0,21,0.00,,,0.00,Weather View 32 v70,2013-08-12 21:26:00,
2013-08-12 15:31:00,87.0,41.0,30.08,WSW,247,6.0,13.0,20,0.00,,,0.00,Weather View 32 v70,2013-08-12 21:31:00,
2013-08-12 15:36:00,88.0,40.4,30.08,West,270,3.0,13.0,19,0.00,,,0.00,Weather View 32 v70,2013-08-12 21:36:00,
2013-08-12 15:41:00,87.0,39.6,30.08,NW,315,3.0,13.0,19,0.00,,,0.00,Weather View 32 v70,2013-08-12 21:41:00,
2013-08-12 15:46:00,88.0,40.4,30.08,SW,225,3.0,13.0,19,0.00,,,0.00,Weather View 32 v70,2013-08-12 21:46:00,
2013-08-12 15:51:00,88.0,39.1,30.08,West,270,3.0,10.0,18,0.00,,,0.00,Weather View 32 v70,2013-08-12 21:51:00,
2013-08-12 15:55:00,88.0,37.6,30.08,ENE,67,2.0,10.0,17,0.00,,,0.00,Weather View 32 v70,2013-08-12 21:55:00,
2013-08-12 16:01:00,88.0,41.8,30.07,West,270,6.0,10.0,20,0.00,,,0.00,Weather View 32 v70,2013-08-12 22:01:00,
2013-08-12 16:06:00,88.0,41.8,30.07,SW,225,4.0,13.0,20,0.00,,,0.00,Weather View 32 v70,2013-08-12 22:06:00,
2013-08-12 16:11:00,88.0,40.4,30.07,West,270,4.0,17.0,19,0.00,,,0.00,Weather View 32 v70,2013-08-12 22:11:00,
2013-08-12 16:16:00,88.0,39.1,30.07,SW,225,5.0,17.0,18,0.00,,,0.00,Weather View 32 v70,2013-08-12 22:16:00,
2013-08-12 16:21:00,88.0,40.4,30.07,WSW,247,4.0,17.0,19,0.00,,,0.00,Weather View 32 v70,2013-08-12 22:21:00,
2013-08-12 16:26:00,88.0,39.1,30.07,West,270,6.0,17.0,18,0.00,,,0.00,Weather View 32 v70,2013-08-12 22:26:00,
2013-08-12 16:31:00,88.0,43.0,30.07,West,270,4.0,17.0,21,0.00,,,0.00,Weather View 32 v70,2013-08-12 22:31:00,
2013-08-12 16:35:00,87.0,38.2,30.07,NE,45,3.0,17.0,18,0.00,,,0.00,Weather View 32 v70,2013-08-12 22:35:00,
2013-08-12 16:40:00,86.0,37.4,30.07,North,360,6.0,17.0,18,0.00,,,0.00,Weather View 32 v70,2013-08-12 22:40:00,
2013-08-12 16:45:00,86.0,37.4,30.07,South,180,6.0,17.0,18,0.00,,,0.00,Weather View 32 v70,2013-08-12 22:45:00,
2013-08-12 16:50:00,87.0,36.8,30.06,SW,225,4.0,17.0,17,0.00,,,0.00,Weather View 32 v70,2013-08-12 22:50:00,
2013-08-12 16:55:00,87.0,39.6,30.06,West,270,2.0,17.0,19,0.00,,,0.00,Weather View 32 v70,2013-08-12 22:55:00,
2013-08-12 17:00:00,87.0,39.6,30.06,NW,315,3.0,17.0,19,0.00,,,0.00,Weather View 32 v70,2013-08-12 23:00:00,
2013-08-12 17:05:00,87.0,38.2,30.06,West,270,3.0,17.0,18,0.00,,,0.00,Weather View 32 v70,2013-08-12 23:05:00,
2013-08-12 17:10:00,87.0,39.6,30.06,NW,315,5.0,15.0,19,0.00,,,0.00,Weather View 32 v70,2013-08-12 23:10:00,
2013-08-12 17:15:00,87.0,39.6,30.06,NW,315,5.0,15.0,19,0.00,,,0.00,Weather View 32 v70,2013-08-12 23:15:00,
2013-08-12 17:20:00,87.0,39.6,30.07,West,270,5.0,15.0,19,0.00,,,0.00,Weather View 32 v70,2013-08-12 23:20:00,
2013-08-12 17:25:00,87.0,38.2,30.07,West,270,10.0,12.0,18,0.00,,,0.00,Weather View 32 v70,2013-08-12 23:25:00,
2013-08-12 17:30:00,87.0,38.2,30.07,WNW,292,5.0,12.0,18,0.00,,,0.00,Weather View 32 v70,2013-08-12 23:30:00,
2013-08-12 17:35:00,86.0,38.8,30.07,WSW,247,4.0,12.0,19,0.00,,,0.00,Weather View 32 v70,2013-08-12 23:35:00,
2013-08-12 17:40:00,86.0,37.4,30.07,WSW,247,4.0,12.0,18,0.00,,,0.00,Weather View 32 v70,2013-08-12 23:40:00,
2013-08-12 17:45:00,86.0,38.8,30.07,West,270,4.0,12.0,19,0.00,,,0.00,Weather View 32 v70,2013-08-12 23:45:00,
2013-08-12 17:50:00,85.0,39.3,30.07,WSW,247,5.0,12.0,20,0.00,,,0.00,Weather View 32 v70,2013-08-12 23:50:00,
2013-08-12 17:55:00,85.0,38.0,30.07,SW,225,10.0,13.0,19,0.00,,,0.00,Weather View 32 v70,2013-08-12 23:55:00,
2013-08-12 18:00:00,85.0,39.3,30.07,SW,225,7.0,13.0,20,0.00,,,0.00,Weather View 32 v70,2013-08-13 00:00:00,
2013-08-12 18:05:00,85.0,39.3,30.07,West,270,4.0,13.0,20,0.00,,,0.00,Weather View 32 v70,2013-08-13 00:05:00,
2013-08-12 18:10:00,84.0,38.5,30.07,SW,225,9.0,13.0,20,0.00,,,0.00,Weather View 32 v70,2013-08-13 00:10:00,
2013-08-12 18:15:00,84.0,39.8,30.07,SW,225,2.0,13.0,21,0.00,,,0.00,Weather View 32 v70,2013-08-13 00:15:00,
2013-08-12 18:20:00,84.0,39.8,30.08,WNW,292,4.0,13.0,21,0.00,,,0.00,Weather View 32 v70,2013-08-13 00:20:00,
2013-08-12 18:25:00,84.0,38.5,30.08,West,270,5.0,13.0,20,0.00,,,0.00,Weather View 32 v70,2013-08-13 00:25:00,
2013-08-12 18:30:00,83.0,40.1,30.07,WSW,247,5.0,13.0,22,0.00,,,0.00,Weather View 32 v70,2013-08-13 00:30:00,
2013-08-12 18:35:00,83.0,40.1,30.07,West,270,3.0,13.0,22,0.00,,,0.00,Weather View 32 v70,2013-08-13 00:35:00,
2013-08-12 18:40:00,82.0,39.3,30.08,West,270,4.0,13.0,22,0.00,,,0.00,Weather View 32 v70,2013-08-13 00:40:00,
2013-08-12 18:45:00,82.0,39.3,30.08,West,270,4.0,13.0,22,0.00,,,0.00,Weather View 32 v70,2013-08-13 00:45:00,
2013-08-12 18:50:00,81.0,39.6,30.08,West,270,5.0,13.0,23,0.00,,,0.00,Weather View 32 v70,2013-08-13 00:50:00,
2013-08-12 18:55:00,81.0,40.7,30.08,West,270,5.0,13.0,24,0.00,,,0.00,Weather View 32 v70,2013-08-13 00:55:00,
2013-08-12 19:00:00,81.0,40.7,30.08,NW,315,5.0,12.0,24,0.00,,,0.00,Weather View 32 v70,2013-08-13 01:00:00,
2013-08-12 19:05:00,80.0,39.9,30.08,West,270,8.0,15.0,24,0.00,,,0.00,Weather View 32 v70,2013-08-13 01:05:00,
2013-08-12 19:10:00,80.0,39.9,30.08,WNW,292,6.0,17.0,24,0.00,,,0.00,Weather View 32 v70,2013-08-13 01:10:00,
2013-08-12 19:15:00,80.0,37.6,30.08,West,270,7.0,17.0,22,0.00,,,0.00,Weather View 32 v70,2013-08-13 01:15:00,
2013-08-12 19:20:00,80.0,36.5,30.09,West,270,5.0,17.0,21,0.00,,,0.00,Weather View 32 v70,2013-08-13 01:20:00,
2013-08-12 19:25:00,80.0,37.6,30.09,SW,225,5.0,17.0,22,0.00,,,0.00,Weather View 32 v70,2013-08-13 01:25:00,
2013-08-12 19:30:00,79.0,37.9,30.09,West,270,2.0,17.0,23,0.00,,,0.00,Weather View 32 v70,2013-08-13 01:30:00,
2013-08-12 19:35:00,79.0,37.9,30.09,West,270,5.0,17.0,23,0.00,,,0.00,Weather View 32 v70,2013-08-13 01:35:00,
2013-08-12 19:40:00,79.0,39.0,30.10,West,270,3.0,17.0,24,0.00,,,0.00,Weather View 32 v70,2013-08-13 01:40:00,
2013-08-12 19:45:00,79.0,39.0,30.10,West,270,6.0,17.0,24,0.00,,,0.00,Weather View 32 v70,2013-08-13 01:45:00,
2013-08-12 19:50:00,79.0,40.1,30.10,West,270,4.0,17.0,25,0.00,,,0.00,Weather View 32 v70,2013-08-13 01:50:00,
2013-08-12 19:55:00,78.0,39.2,30.10,West,270,1.0,17.0,25,0.00,,,0.00,Weather View 32 v70,2013-08-13 01:55:00,
2013-08-12 20:00:00,78.0,40.2,30.10,WSW,247,4.0,17.0,26,0.00,,,0.00,Weather View 32 v70,2013-08-13 02:00:00,
2013-08-12 20:05:00,77.0,40.4,30.10,WSW,247,3.0,17.0,27,0.00,,,0.00,Weather View 32 v70,2013-08-13 02:05:00,
2013-08-12 20:10:00,77.0,41.3,30.10,WSW,247,0.0,11.0,28,0.00,,,0.00,Weather View 32 v70,2013-08-13 02:10:00,
2013-08-12 20:15:00,77.0,42.2,30.10,West,270,3.0,11.0,29,0.00,,,0.00,Weather View 32 v70,2013-08-13 02:15:00,
2013-08-12 20:20:00,76.0,41.4,30.11,West,270,1.0,9.0,29,0.00,,,0.00,Weather View 32 v70,2013-08-13 02:20:00,
2013-08-12 20:26:00,76.0,42.2,30.11,West,270,3.0,8.0,30,0.00,,,0.00,Weather View 32 v70,2013-08-13 02:26:00,
2013-08-12 20:31:00,75.0,41.4,30.12,WSW,247,2.0,8.0,30,0.00,,,0.00,Weather View 32 v70,2013-08-13 02:31:00,
2013-08-12 20:36:00,75.0,41.4,30.12,WSW,247,1.0,8.0,30,0.00,,,0.00,Weather View 32 v70,2013-08-13 02:36:00,
2013-08-12 20:41:00,74.0,40.5,30.12,SW,225,4.0,8.0,30,0.00,,,0.00,Weather View 32 v70,2013-08-13 02:41:00,
2013-08-12 20:46:00,74.0,40.5,30.12,SW,225,4.0,8.0,30,0.00,,,0.00,Weather View 32 v70,2013-08-13 02:46:00,
2013-08-12 20:51:00,74.0,41.4,30.12,SW,225,0.0,7.0,31,0.00,,,0.00,Weather View 32 v70,2013-08-13 02:51:00,
2013-08-12 20:56:00,74.0,42.2,30.12,SW,225,1.0,7.0,32,0.00,,,0.00,Weather View 32 v70,2013-08-13 02:56:00,
2013-08-12 21:01:00,73.0,41.3,30.12,SW,225,1.0,7.0,32,0.00,,,0.00,Weather View 32 v70,2013-08-13 03:01:00,
2013-08-12 21:06:00,73.0,41.3,30.12,West,270,0.0,7.0,32,0.00,,,0.00,Weather View 32 v70,2013-08-13 03:06:00,
2013-08-12 21:11:00,73.0,41.3,30.12,West,270,2.0,7.0,32,0.00,,,0.00,Weather View 32 v70,2013-08-13 03:11:00,
2013-08-12 21:16:00,73.0,41.3,30.12,West,270,3.0,7.0,32,0.00,,,0.00,Weather View 32 v70,2013-08-13 03:16:00,
2013-08-12 21:21:00,72.0,40.5,30.12,West,270,2.0,7.0,32,0.00,,,0.00,Weather View 32 v70,2013-08-13 03:21:00,
2013-08-12 21:26:00,72.0,41.2,30.13,West,270,1.0,7.0,33,0.00,,,0.00,Weather View 32 v70,2013-08-13 03:26:00,
2013-08-12 21:31:00,72.0,40.5,30.13,West,270,0.0,7.0,32,0.00,,,0.00,Weather View 32 v70,2013-08-13 03:31:00,
2013-08-12 21:36:00,72.0,40.5,30.14,West,270,1.0,7.0,32,0.00,,,0.00,Weather View 32 v70,2013-08-13 03:36:00,
2013-08-12 21:41:00,71.0,40.4,30.14,West,270,3.0,7.0,33,0.00,,,0.00,Weather View 32 v70,2013-08-13 03:41:00,
2013-08-12 21:46:00,71.0,40.4,30.14,West,270,0.0,7.0,33,0.00,,,0.00,Weather View 32 v70,2013-08-13 03:46:00,
2013-08-12 21:52:00,71.0,42.6,30.14,West,270,0.0,6.0,36,0.00,,,0.00,Weather View 32 v70,2013-08-13 03:52:00,
2013-08-12 21:57:00,70.0,41.7,30.14,West,270,0.0,4.0,36,0.00,,,0.00,Weather View 32 v70,2013-08-13 03:57:00,
2013-08-12 22:01:00,70.0,42.5,30.14,West,270,0.0,4.0,37,0.00,,,0.00,Weather View 32 v70,2013-08-13 04:01:00,
2013-08-12 22:06:00,70.0,43.8,30.14,West,270,0.0,4.0,39,0.00,,,0.00,Weather View 32 v70,2013-08-13 04:06:00,
2013-08-12 22:11:00,69.0,42.9,30.14,West,270,0.0,4.0,39,0.00,,,0.00,Weather View 32 v70,2013-08-13 04:11:00,
2013-08-12 22:16:00,69.0,43.6,30.14,NW,315,3.0,4.0,40,0.00,,,0.00,Weather View 32 v70,2013-08-13 04:16:00,
2013-08-12 22:21:00,69.0,42.3,30.15,NW,315,3.0,4.0,38,0.00,,,0.00,Weather View 32 v70,2013-08-13 04:21:00,
2013-08-12 22:26:00,69.0,41.6,30.15,NW,315,0.0,4.0,37,0.00,,,0.00,Weather View 32 v70,2013-08-13 04:26:00,
2013-08-12 22:31:00,69.0,44.3,30.14,NW,315,1.0,4.0,41,0.00,,,0.00,Weather View 32 v70,2013-08-13 04:31:00,
2013-08-12 22:36:00,69.0,43.6,30.14,NW,315,0.0,4.0,40,0.00,,,0.00,Weather View 32 v70,2013-08-13 04:36:00,
2013-08-12 22:41:00,69.0,42.9,30.15,NW,315,0.0,4.0,39,0.00,,,0.00,Weather View 32 v70,2013-08-13 04:41:00,
2013-08-12 22:46:00,68.0,45.2,30.15,NW,315,0.0,4.0,44,0.00,,,0.00,Weather View 32 v70,2013-08-13 04:46:00,
2013-08-12 22:51:00,68.0,45.8,30.15,NW,315,2.0,4.0,45,0.00,,,0.00,Weather View 32 v70,2013-08-13 04:51:00,
2013-08-12 22:56:00,68.0,44.0,30.15,NW,315,2.0,4.0,42,0.00,,,0.00,Weather View 32 v70,2013-08-13 04:56:00,
2013-08-12 23:01:00,68.0,43.4,30.15,NW,315,0.0,4.0,41,0.00,,,0.00,Weather View 32 v70,2013-08-13 05:01:00,
2013-08-12 23:06:00,68.0,43.4,30.15,NW,315,0.0,4.0,41,0.00,,,0.00,Weather View 32 v70,2013-08-13 05:06:00,
2013-08-12 23:11:00,67.0,44.9,30.15,NW,315,2.0,4.0,45,0.00,,,0.00,Weather View 32 v70,2013-08-13 05:11:00,
2013-08-12 23:16:00,67.0,44.9,30.15,NW,315,3.0,4.0,45,0.00,,,0.00,Weather View 32 v70,2013-08-13 05:16:00,
2013-08-12 23:21:00,67.0,45.5,30.15,NW,315,2.0,4.0,46,0.00,,,0.00,Weather View 32 v70,2013-08-13 05:21:00,
2013-08-12 23:26:00,67.0,45.5,30.15,NW,315,4.0,4.0,46,0.00,,,0.00,Weather View 32 v70,2013-08-13 05:26:00,
2013-08-12 23:31:00,67.0,45.5,30.16,NW,315,4.0,5.0,46,0.00,,,0.00,Weather View 32 v70,2013-08-13 05:31:00,
2013-08-12 23:36:00,67.0,44.9,30.16,NW,315,6.0,6.0,45,0.00,,,0.00,Weather View 32 v70,2013-08-13 05:36:00,
2013-08-12 23:41:00,67.0,41.8,30.16,NW,315,4.0,14.0,40,0.00,,,0.00,Weather View 32 v70,2013-08-13 05:41:00,
2013-08-12 23:46:00,67.0,41.8,30.16,North,360,3.0,14.0,40,0.00,,,0.00,Weather View 32 v70,2013-08-13 05:46:00,
2013-08-12 23:51:00,68.0,42.7,30.16,North,360,3.0,14.0,40,0.00,,,0.00,Weather View 32 v70,2013-08-13 05:51:00,
2013-08-12 23:56:00,68.0,43.4,30.16,North,360,3.0,14.0,41,0.00,,,0.00,Weather View 32 v70,2013-08-13 05:56:00,